• In India
  • List of Countries
  • For 7 days
  • Water Temperature
  • Satellite Maps
  • Weather Map
  • Weather Widgets
  • user-avatar
    Login

    Hourly Weather Popivka

    Today, 17 August, Friday

    Time Temperature Precipitation Wind Pressure Humidity
    00:00 +22°C° 0 mm 3 mps 743 mmHg 73%
    01:00 +22°C° 0 mm 4 mps 743 mmHg 73%
    02:00 +21°C° 0 mm 3 mps 743 mmHg 74%
    03:00 +21°C° 0 mm 3 mps 743 mmHg 75%
    04:00 +21°C° 0 mm 4 mps 743 mmHg 76%
    05:00 +21°C° 0 mm 4 mps 743 mmHg 77%
    06:00 +21°C° 0.1 mm 4 mps 743 mmHg 77%
    07:00 +22°C° 0.1 mm 4 mps 743 mmHg 77%
    08:00 +22°C° 0.1 mm 4 mps 743 mmHg 77%
    09:00 +23°C° 0.1 mm 4 mps 743 mmHg 75%
    10:00 +23°C° 0.1 mm 4 mps 743 mmHg 73%
    11:00 +25°C° 0.1 mm 4 mps 743 mmHg 71%
    12:00 +26°C° 0.1 mm 4 mps 743 mmHg 66%
    13:00 +27°C° 0.1 mm 5 mps 743 mmHg 62%
    14:00 +28°C° 0.1 mm 5 mps 743 mmHg 58%
    15:00 +28°C° 0 mm 4 mps 743 mmHg 58%
    16:00 +28°C° 0 mm 4 mps 743 mmHg 58%
    17:00 +28°C° 0 mm 4 mps 743 mmHg 59%
    18:00 +27°C° 0.3 mm 4 mps 743 mmHg 64%
    19:00 +25°C° 0.3 mm 4 mps 742 mmHg 70%
    20:00 +22°C° 0.3 mm 3 mps 742 mmHg 76%
    21:00 +22°C° 0 mm 3 mps 742 mmHg 77%
    22:00 +21°C° 0 mm 3 mps 743 mmHg 78%
    23:00 +21°C° 0 mm 3 mps 743 mmHg 79%

    Tomorrow, 18 August, Saturday

    Time Temperature Precipitation Wind Pressure Humidity
    00:00 +21°C° 0.1 mm 3 mps 743 mmHg 81%
    01:00 +20°C° 0.1 mm 3 mps 743 mmHg 83%
    02:00 +20°C° 0.1 mm 3 mps 743 mmHg 85%
    03:00 +20°C° 0.3 mm 3 mps 743 mmHg 84%
    04:00 +20°C° 0.3 mm 2 mps 743 mmHg 83%
    05:00 +20°C° 0.3 mm 2 mps 743 mmHg 82%
    06:00 +20°C° 0.2 mm 3 mps 743 mmHg 81%
    07:00 +21°C° 0.2 mm 3 mps 744 mmHg 79%
    08:00 +22°C° 0.2 mm 3 mps 744 mmHg 78%
    09:00 +23°C° 0 mm 4 mps 744 mmHg 73%
    10:00 +26°C° 0 mm 4 mps 744 mmHg 69%
    11:00 +27°C° 0 mm 4 mps 744 mmHg 64%
    12:00 +28°C° 0 mm 4 mps 744 mmHg 60%
    13:00 +29°C° 0 mm 4 mps 744 mmHg 56%
    14:00 +30°C° 0 mm 4 mps 744 mmHg 53%
    15:00 +30°C° 0 mm 3 mps 744 mmHg 54%
    16:00 +30°C° 0 mm 3 mps 744 mmHg 55%
    17:00 +29°C° 0 mm 3 mps 743 mmHg 57%
    18:00 +28°C° 0 mm 3 mps 744 mmHg 61%
    19:00 +26°C° 0 mm 3 mps 744 mmHg 65%
    20:00 +24°C° 0 mm 3 mps 744 mmHg 69%
    21:00 +24°C° 0.3 mm 3 mps 744 mmHg 71%
    22:00 +22°C° 0.3 mm 3 mps 744 mmHg 72%
    23:00 +21°C° 0.3 mm 3 mps 744 mmHg 74%

    Day after tomorrow, 19 August, Sunday

    Time Temperature Precipitation Wind Pressure Humidity
    00:00 +21°C° 0.1 mm 2 mps 744 mmHg 76%
    01:00 +20°C° 0.1 mm 2 mps 744 mmHg 77%
    02:00 +20°C° 0.1 mm 2 mps 744 mmHg 78%
    03:00 +19°C° 0 mm 2 mps 744 mmHg 79%
    04:00 +19°C° 0 mm 2 mps 744 mmHg 80%
    05:00 +19°C° 0 mm 2 mps 744 mmHg 80%
    06:00 +20°C° 0 mm 2 mps 744 mmHg 76%
    07:00 +23°C° 0 mm 2 mps 744 mmHg 71%
    08:00 +24°C° 0 mm 2 mps 745 mmHg 66%
    09:00 +26°C° 0 mm 3 mps 745 mmHg 61%
    10:00 +27°C° 0 mm 3 mps 745 mmHg 55%
    11:00 +29°C° 0 mm 3 mps 745 mmHg 50%
    12:00 +29°C° 0 mm 3 mps 744 mmHg 47%
    13:00 +30°C° 0 mm 3 mps 744 mmHg 44%
    14:00 +30°C° 0 mm 3 mps 744 mmHg 42%
    15:00 +30°C° 0 mm 3 mps 744 mmHg 43%
    16:00 +30°C° 0 mm 2 mps 744 mmHg 45%
    17:00 +30°C° 0 mm 2 mps 744 mmHg 46%
    18:00 +28°C° 0 mm 2 mps 744 mmHg 49%
    19:00 +26°C° 0 mm 3 mps 744 mmHg 52%
    20:00 +24°C° 0 mm 3 mps 744 mmHg 55%
    21:00 +22°C° 0.1 mm 3 mps 744 mmHg 54%
    22:00 +21°C° 0.1 mm 3 mps 744 mmHg 53%
    23:00 +21°C° 0.1 mm 2 mps 744 mmHg 52%

    20 August, Monday

    Time Temperature Precipitation Wind Pressure Humidity
    00:00 +20°C° 0 mm 2 mps 744 mmHg 52%
    01:00 +20°C° 0 mm 2 mps 744 mmHg 51%
    02:00 +19°C° 0 mm 2 mps 744 mmHg 51%
    03:00 +20°C° 0 mm 1 mps 744 mmHg 51%
    04:00 +19°C° 0 mm 1 mps 744 mmHg 51%
    05:00 +19°C° 0 mm 1 mps 744 mmHg 51%
    06:00 +21°C° 0 mm 1 mps 744 mmHg 50%
    07:00 +22°C° 0 mm 1 mps 744 mmHg 48%
    08:00 +24°C° 0 mm 2 mps 744 mmHg 47%
    09:00 +25°C° 0 mm 2 mps 744 mmHg 43%
    10:00 +27°C° 0 mm 2 mps 744 mmHg 39%
    11:00 +28°C° 0 mm 2 mps 744 mmHg 36%
    12:00 +29°C° 0 mm 2 mps 744 mmHg 35%
    13:00 +30°C° 0 mm 2 mps 744 mmHg 34%
    14:00 +30°C° 0 mm 1 mps 744 mmHg 33%
    15:00 +30°C° 0 mm 1 mps 744 mmHg 34%
    16:00 +30°C° 0 mm 1 mps 744 mmHg 35%
    17:00 +30°C° 0 mm 1 mps 744 mmHg 37%
    18:00 +28°C° 0 mm 1 mps 744 mmHg 40%
    19:00 +26°C° 0 mm 1 mps 744 mmHg 43%
    20:00 +24°C° 0 mm 1 mps 744 mmHg 46%
    21:00 +23°C° 0 mm 1 mps 744 mmHg 46%
    22:00 +23°C° 0 mm 1 mps 744 mmHg 46%
    23:00 +21°C° 0 mm 2 mps 744 mmHg 46%

    21 August, Tuesday

    Time Temperature Precipitation Wind Pressure Humidity
    00:00 +22°C° 0 mm 1 mps 744 mmHg 45%
    01:00 +21°C° 0 mm 1 mps 744 mmHg 45%
    02:00 +21°C° 0 mm 1 mps 744 mmHg 45%
    03:00 +20°C° 0 mm 1 mps 744 mmHg 45%
    04:00 +20°C° 0 mm 1 mps 744 mmHg 46%
    05:00 +18°C° 0 mm 0 mps 744 mmHg 46%
    06:00 +19°C° 0 mm 0 mps 744 mmHg 45%
    07:00 +21°C° 0 mm 0 mps 745 mmHg 43%
    08:00 +23°C° 0 mm 0 mps 745 mmHg 42%
    09:00 +25°C° 0 mm 0 mps 745 mmHg 39%
    10:00 +28°C° 0 mm 1 mps 745 mmHg 37%
    11:00 +30°C° 0 mm 1 mps 745 mmHg 34%
    12:00 +30°C° 0 mm 1 mps 745 mmHg 35%
    13:00 +31°C° 0 mm 1 mps 745 mmHg 35%
    14:00 +31°C° 0 mm 1 mps 744 mmHg 35%
    15:00 +31°C° 0 mm 1 mps 744 mmHg 36%
    16:00 +29°C° 0 mm 0 mps 744 mmHg 37%
    17:00 +29°C° 0 mm 0 mps 744 mmHg 38%
    18:00 +27°C° 0 mm 0 mps 744 mmHg 42%
    19:00 +25°C° 0 mm 0 mps 744 mmHg 46%
    20:00 +23°C° 0 mm 0 mps 744 mmHg 50%
    21:00 +25°C° 0 mm 1 mps 744 mmHg 51%
    22:00 +24°C° 0 mm 1 mps 744 mmHg 52%
    23:00 +24°C° 0 mm 1 mps 744 mmHg 53%

    22 August, Wednesday

    Time Temperature Precipitation Wind Pressure Humidity
    00:00 +23°C° 0 mm 1 mps 744 mmHg 53%
    01:00 +23°C° 0 mm 1 mps 744 mmHg 53%
    02:00 +22°C° 0 mm 1 mps 744 mmHg 54%
    03:00 +22°C° 0 mm 1 mps 744 mmHg 54%
    04:00 +22°C° 0 mm 1 mps 744 mmHg 54%
    05:00 +21°C° 0 mm 1 mps 744 mmHg 54%
    06:00 +23°C° 0 mm 1 mps 744 mmHg 51%
    07:00 +25°C° 0 mm 1 mps 745 mmHg 48%
    08:00 +26°C° 0 mm 1 mps 745 mmHg 45%
    09:00 +28°C° 0 mm 1 mps 745 mmHg 41%
    10:00 +29°C° 0 mm 2 mps 745 mmHg 38%
    11:00 +31°C° 0 mm 2 mps 745 mmHg 34%
    12:00 +32°C° 0 mm 2 mps 744 mmHg 33%
    13:00 +32°C° 0 mm 2 mps 744 mmHg 33%
    14:00 +34°C° 0 mm 2 mps 744 mmHg 32%
    15:00 +32°C° 0 mm 1 mps 744 mmHg 34%
    16:00 +32°C° 0 mm 1 mps 743 mmHg 35%
    17:00 +32°C° 0 mm 1 mps 743 mmHg 37%
    18:00 +30°C° 0 mm 1 mps 743 mmHg 40%
    19:00 +26°C° 0 mm 0 mps 743 mmHg 43%
    20:00 +24°C° 0 mm 0 mps 743 mmHg 47%
    21:00 +26°C° 0 mm 1 mps 743 mmHg 48%
    22:00 +25°C° 0 mm 1 mps 743 mmHg 49%
    23:00 +25°C° 0 mm 1 mps 743 mmHg 50%
    Show more